Weather History for Hailey, ID

Change the Weather History Date:

Friday, February 15, 2013

  Actual Average Record
Temperature  
Mean Temperature 27 °F -  
Max Temperature 37 °F 37 °F 46 °F (2011)
Min Temperature 17 °F 16 °F 3 °F (2005)
Degree Days  
Heating Degree Days 38    
Moisture  
Dew Point 20 °F    
Average Humidity 73    
Maximum Humidity 86    
Minimum Humidity 56    
Precipitation  
Precipitation 0.00 in - - ()
Sea Level Pressure  
Sea Level Pressure 30.41 in    
Wind  
Wind Speed 9 mph (NW)    
Max Wind Speed 13 mph    
Max Gust Speed -    
Visibility 10 miles    
Events      
Averages and records for this station are not official NWS values.
T = Trace of Precipitation, MM = Missing Value Source: NWS Daily Summary

Daily Weather History Graph

Daily Weather History Graph

Search for Another Location

Airport:

Trip Planner

Search our weather history database for the weather conditions in past years. The results will help you decide how hot, cold, wet, or windy it might be!

Date:

Astronomy

Feb. 15, 2013 Rise Set
Actual Time 7:35 AM MST 6:08 PM MST
Civil Twilight 7:05 AM MST 6:37 PM MST
Nautical Twilight 6:32 AM MST 7:11 PM MST
Astronomical Twilight 5:59 AM MST 7:44 PM MST
Moon 10:01 AM MST (2/15) No Moon Set
Length of Visible Light 11h 31m
Length of Day
10h 33m
Waxing Crescent, 31% of the Moon is Illuminated
Feb 15
Waxing Crescent
Feb 17
First Quarter
Feb 25
Full
Mar 4
Last Quarter
Mar 11
New

Hourly Weather History & Observations

Time (MST) Temp. Windchill Dew Point Humidity Pressure Visibility Wind Dir Wind Speed Gust Speed Precip Events Conditions
12:15 AM 26.6 °F 16.8 °F 19.4 °F 74% 30.37 in 10.0 mi NW 10.4 mph - N/A   Clear
12:35 AM 26.6 °F 16.8 °F 19.4 °F 74% 30.37 in 10.0 mi NW 10.4 mph - N/A   Clear
12:55 AM 24.8 °F 14.0 °F 19.4 °F 80% 30.37 in 10.0 mi NNW 11.5 mph - N/A   Clear
1:15 AM 26.6 °F 16.8 °F 19.4 °F 74% 30.38 in 10.0 mi NW 10.4 mph - N/A   Clear
1:35 AM 26.6 °F 15.7 °F 19.4 °F 74% 30.38 in 10.0 mi NW 12.7 mph - N/A   Clear
1:55 AM 26.6 °F 17.5 °F 17.6 °F 69% 30.38 in 10.0 mi NW 9.2 mph - N/A   Clear
2:15 AM 26.6 °F 16.8 °F 17.6 °F 69% 30.38 in 10.0 mi NW 10.4 mph - N/A   Clear
2:35 AM 26.6 °F 17.5 °F 17.6 °F 69% 30.38 in 10.0 mi NW 9.2 mph - N/A   Clear
2:55 AM 26.6 °F 16.2 °F 17.6 °F 69% 30.38 in 10.0 mi NW 11.5 mph - N/A   Clear
3:15 AM 26.6 °F 16.2 °F 17.6 °F 69% 30.38 in 10.0 mi NW 11.5 mph - N/A   Clear
3:35 AM 24.8 °F 14.6 °F 17.6 °F 74% 30.38 in 10.0 mi NW 10.4 mph - N/A   Clear
3:55 AM 26.6 °F 16.8 °F 17.6 °F 69% 30.38 in 10.0 mi NW 10.4 mph - N/A   Clear
4:15 AM 24.8 °F 14.0 °F 17.6 °F 74% 30.38 in 10.0 mi NW 11.5 mph - N/A   Clear
4:35 AM 23.0 °F 13.1 °F 15.8 °F 74% 30.38 in 10.0 mi NW 9.2 mph - N/A   Clear
4:55 AM 23.0 °F 18.4 °F 15.8 °F 74% 30.39 in 10.0 mi North 3.5 mph - N/A   Clear
5:15 AM 23.0 °F - 15.8 °F 74% 30.39 in 10.0 mi Calm Calm - N/A   Clear
5:35 AM 21.2 °F 13.6 °F 15.8 °F 80% 30.41 in 10.0 mi NNW 5.8 mph - N/A   Clear
5:55 AM 21.2 °F 14.9 °F 14.0 °F 74% 30.42 in 10.0 mi North 4.6 mph - N/A   Clear
6:47 AM 17.6 °F 8.2 °F 14.0 °F 86% 30.42 in 10.0 mi NW 6.9 mph - N/A   Clear
7:47 AM 19.4 °F 10.4 °F 14.0 °F 80% 30.44 in 10.0 mi WNW 6.9 mph - N/A   Partly Cloudy
8:47 AM 21.2 °F 10.9 °F 14.0 °F 74% 30.45 in 10.0 mi WNW 9.2 mph - N/A   Partly Cloudy
9:47 AM 26.6 °F 18.2 °F 15.8 °F 64% 30.46 in 10.0 mi NW 8.1 mph - N/A   Partly Cloudy
10:50 AM 30.2 °F 23.4 °F 19.4 °F 64% 30.46 in 10.0 mi NW 6.9 mph - N/A   Partly Cloudy
11:55 AM 35.6 °F 31.7 °F 21.2 °F 56% 30.46 in 10.0 mi ESE 4.6 mph - N/A   Partly Cloudy
12:47 PM 35.6 °F 28.6 °F 24.8 °F 65% 30.45 in 10.0 mi ESE 9.2 mph - N/A   Scattered Clouds
1:47 PM 37.4 °F 31.4 °F 24.8 °F 60% 30.44 in 10.0 mi SE 8.1 mph - N/A   Scattered Clouds
2:47 PM 37.4 °F 32.8 °F 24.8 °F 60% 30.42 in 10.0 mi ESE 5.8 mph - N/A   Scattered Clouds
3:50 PM 37.4 °F 32.1 °F 26.6 °F 65% 30.42 in 10.0 mi ESE 6.9 mph - N/A   Scattered Clouds
4:50 PM 37.4 °F 32.8 °F 26.6 °F 65% 30.41 in 10.0 mi ESE 5.8 mph - N/A   Partly Cloudy
5:55 PM 33.8 °F - 24.8 °F 70% 30.41 in 10.0 mi Calm Calm - N/A   Partly Cloudy
6:47 PM 30.2 °F - 24.8 °F 80% 30.41 in 10.0 mi Calm Calm - N/A   Clear
7:50 PM 28.4 °F - 24.8 °F 86% 30.42 in 10.0 mi Calm Calm - N/A   Clear
8:47 PM 30.2 °F 22.6 °F 24.8 °F 80% 30.41 in 10.0 mi WNW 8.1 mph - N/A   Clear
9:47 PM 28.4 °F 22.2 °F 23.0 °F 80% 30.41 in 10.0 mi WNW 5.8 mph - N/A   Clear
10:15 PM 28.4 °F 22.2 °F 23.0 °F 80% 30.42 in 10.0 mi NNW 5.8 mph - N/A   Clear
10:35 PM 28.4 °F 20.4 °F 23.0 °F 80% 30.41 in 10.0 mi NW 8.1 mph - N/A   Clear
10:47 PM 26.6 °F 18.2 °F 21.2 °F 80% 30.41 in 10.0 mi West 8.1 mph - N/A   Clear
10:55 PM 28.4 °F 20.4 °F 23.0 °F 80% 30.41 in 10.0 mi WNW 8.1 mph - N/A   Clear
11:15 PM 28.4 °F 20.4 °F 23.0 °F 80% 30.41 in 10.0 mi WNW 8.1 mph - N/A   Clear
11:35 PM 26.6 °F 20.0 °F 21.2 °F 80% 30.41 in 10.0 mi NW 5.8 mph - N/A   Clear
11:55 PM 28.4 °F 22.2 °F 21.2 °F 74% 30.40 in 10.0 mi NW 5.8 mph - N/A   Clear